Location: Chircca
(13.7944°S, 72.0608°W)
Time: 06:05:20
(UTC+00:00)

In-Cosmos 22 - Pass Details

Date: 14 July 2020
Orbit: 785 x 876 km, 81.2° (Epoch: 14 August)

Event Time Altitude Azimuth Distance (km) Brightness Sun altitude
Rises 10:17:50 0° 344° (NNW) 3,414 7.4 -13.3°
Reaches altitude 10° 10:20:20 10° 339° (NNW) 2,471 6.6 -12.7°
Maximum altitude 10:25:46 52° 264° (W) 1,034 4.3 -11.5°
Drops below altitude 10° 10:31:08 10° 188° (S) 2,432 6.3 -10.3°
Sets 10:33:34 0° 182° (S) 3,356 7.1 -9.7°
